UAL847 KIAH-SCEL

Flight info

Callsign UAL847
Flight time N/A
Altitude 31000
Route FLYZA5 MUSYL L207 IPSEV DCT VIKMO DCT MUVAP UL207 ENALO/N0490F330 UL207 LIXAS DCT ARNEL UM542 TAL DCT UGUGO DCT NIGNA/N0475F350 DCT SORTA UL780 SULNA UT315 TOY UV208 SIMOK SIMOK7B
Aircraft B772/H-SDE2E3FGHIJ5LORVWXY/LB1D1

Departure

Time N/A
Airport George Bush Intercontinental Airport (KIAH)

Arrival

Time 2026-05-05 07:38
Airport Comodoro Arturo Merino Benítez International Airport (SCEL)
Time Latitude Longitude Altitude Speed Heading
2026-05-05 05:36 -18.33809 -76.30631 36998 ft 525 kts 167°
2026-05-05 05:37 -18.40874 -76.28615 37002 ft 526 kts 167°
2026-05-05 05:37 -18.47879 -76.26529 37015 ft 526 kts 166°
2026-05-05 05:38 -18.54948 -76.24418 37004 ft 526 kts 166°
2026-05-05 05:38 -18.61965 -76.22335 37014 ft 526 kts 167°
2026-05-05 05:39 -18.69034 -76.20243 37005 ft 527 kts 167°
2026-05-05 05:39 -18.76109 -76.18149 37009 ft 527 kts 167°
2026-05-05 05:40 -18.83142 -76.16064 37010 ft 527 kts 167°
2026-05-05 05:40 -18.90214 -76.13965 37010 ft 527 kts 167°
2026-05-05 05:41 -18.97290 -76.11863 37014 ft 527 kts 167°
2026-05-05 05:41 -19.04362 -76.09760 37010 ft 527 kts 167°
2026-05-05 05:42 -19.11389 -76.07669 37012 ft 527 kts 167°
2026-05-05 05:42 -19.18465 -76.05562 37008 ft 527 kts 167°
2026-05-05 05:43 -19.25530 -76.03455 37010 ft 527 kts 167°
2026-05-05 05:43 -19.32609 -76.01343 37022 ft 527 kts 167°
2026-05-05 05:44 -19.39623 -75.99249 37021 ft 527 kts 167°
2026-05-05 05:44 -19.46689 -75.97136 37018 ft 527 kts 167°
2026-05-05 05:45 -19.53749 -75.95024 37021 ft 527 kts 167°
2026-05-05 05:45 -19.60809 -75.92910 37026 ft 527 kts 168°
2026-05-05 05:46 -19.67880 -75.90791 37022 ft 528 kts 168°
2026-05-05 05:46 -19.74965 -75.88666 37024 ft 529 kts 168°
2026-05-05 05:47 -19.82031 -75.86544 37024 ft 530 kts 168°
2026-05-05 05:47 -19.89154 -75.84403 37023 ft 531 kts 168°
2026-05-05 05:48 -19.96245 -75.82270 37021 ft 532 kts 168°
2026-05-05 05:48 -20.03392 -75.80118 37026 ft 533 kts 168°
2026-05-05 05:49 -20.09335 -75.78326 37020 ft 534 kts 168°
2026-05-05 05:49 -20.17672 -75.75811 37027 ft 534 kts 168°
2026-05-05 05:50 -20.23635 -75.74010 37032 ft 534 kts 168°
2026-05-05 05:50 -20.30759 -75.71857 37026 ft 534 kts 168°
2026-05-05 05:51 -20.37915 -75.69693 37034 ft 534 kts 168°
2026-05-05 05:51 -20.45076 -75.67524 37030 ft 534 kts 168°
2026-05-05 05:52 -20.52249 -75.65350 37030 ft 534 kts 168°
2026-05-05 05:52 -20.59377 -75.63187 37039 ft 534 kts 169°
2026-05-05 05:53 -20.66548 -75.61009 37027 ft 534 kts 169°
2026-05-05 05:53 -20.73666 -75.58846 37027 ft 533 kts 169°
2026-05-05 05:54 -20.80814 -75.56670 37038 ft 533 kts 169°
2026-05-05 05:54 -20.87952 -75.54496 37043 ft 533 kts 169°
2026-05-05 05:55 -20.95060 -75.52329 37032 ft 533 kts 169°
2026-05-05 05:55 -21.02209 -75.50148 37029 ft 533 kts 169°
2026-05-05 05:56 -21.09351 -75.47966 37030 ft 533 kts 169°
2026-05-05 05:56 -21.16465 -75.45790 37030 ft 533 kts 169°
2026-05-05 05:57 -21.23624 -75.43599 37024 ft 534 kts 169°
2026-05-05 05:57 -21.30735 -75.41419 37036 ft 534 kts 169°
2026-05-05 05:58 -21.37891 -75.39224 37026 ft 534 kts 169°
2026-05-05 05:58 -21.45022 -75.37035 37028 ft 534 kts 169°
2026-05-05 05:59 -21.52175 -75.34839 37031 ft 534 kts 169°
2026-05-05 05:59 -21.59290 -75.32652 37032 ft 534 kts 169°
2026-05-05 06:00 -21.66444 -75.30450 37029 ft 534 kts 169°
2026-05-05 06:00 -21.73597 -75.28246 37030 ft 534 kts 169°
2026-05-05 06:01 -21.80704 -75.26054 37043 ft 534 kts 170°
2026-05-05 06:01 -21.87863 -75.23843 37030 ft 534 kts 170°
2026-05-05 06:02 -21.94981 -75.21644 37033 ft 534 kts 170°
2026-05-05 06:02 -22.02161 -75.19422 37033 ft 535 kts 170°
2026-05-05 06:03 -22.09281 -75.17217 37033 ft 535 kts 170°
2026-05-05 06:03 -22.16450 -75.14994 37043 ft 535 kts 171°
2026-05-05 06:04 -22.23631 -75.12765 37037 ft 535 kts 170°
2026-05-05 06:04 -22.30752 -75.10553 37038 ft 535 kts 170°
2026-05-05 06:05 -22.37923 -75.08322 37040 ft 535 kts 170°
2026-05-05 06:05 -22.45087 -75.06091 37053 ft 535 kts 171°
2026-05-05 06:06 -22.52205 -75.03872 37038 ft 534 kts 171°
2026-05-05 06:06 -22.59356 -75.01640 37038 ft 533 kts 171°
2026-05-05 06:07 -22.66491 -74.99411 37040 ft 532 kts 171°
2026-05-05 06:07 -22.73581 -74.97194 37057 ft 532 kts 171°
2026-05-05 06:08 -22.80702 -74.94965 37040 ft 531 kts 171°
2026-05-05 06:08 -22.87769 -74.92750 37040 ft 530 kts 171°
2026-05-05 06:09 -22.94872 -74.90522 37043 ft 530 kts 171°
2026-05-05 06:09 -23.01931 -74.88305 37060 ft 529 kts 171°
2026-05-05 06:10 -23.09023 -74.86075 37048 ft 529 kts 171°
2026-05-05 06:10 -23.16072 -74.83857 37042 ft 529 kts 171°
2026-05-05 06:11 -23.23153 -74.81625 37046 ft 529 kts 171°
2026-05-05 06:11 -23.30255 -74.79385 37048 ft 529 kts 171°
2026-05-05 06:12 -23.37304 -74.77159 37053 ft 529 kts 171°
2026-05-05 06:12 -23.44391 -74.74918 37045 ft 529 kts 171°
2026-05-05 06:13 -23.51470 -74.72677 37046 ft 529 kts 171°
2026-05-05 06:13 -23.58502 -74.70448 37046 ft 528 kts 171°
2026-05-05 06:14 -23.65576 -74.68204 37058 ft 528 kts 171°
2026-05-05 06:14 -23.72599 -74.65974 37048 ft 528 kts 171°
2026-05-05 06:15 -23.79661 -74.63728 37045 ft 527 kts 171°
2026-05-05 06:15 -23.86717 -74.61482 37046 ft 527 kts 171°
2026-05-05 06:16 -23.93764 -74.59236 37062 ft 527 kts 171°
2026-05-05 06:16 -24.00787 -74.56996 37052 ft 526 kts 171°
2026-05-05 06:17 -24.07782 -74.54761 37048 ft 526 kts 171°
2026-05-05 06:17 -24.14820 -74.52510 37048 ft 526 kts 171°
2026-05-05 06:18 -24.21860 -74.50256 37059 ft 525 kts 171°
2026-05-05 06:18 -24.28843 -74.48021 37055 ft 525 kts 171°
2026-05-05 06:19 -24.35876 -74.45788 37052 ft 524 kts 171°
2026-05-05 06:19 -24.42849 -74.43578 37042 ft 524 kts 171°
2026-05-05 06:20 -24.49855 -74.41353 37045 ft 524 kts 171°
2026-05-05 06:20 -24.56865 -74.39122 37054 ft 524 kts 171°
2026-05-05 06:21 -24.63836 -74.36899 37054 ft 524 kts 171°
2026-05-05 06:21 -24.70848 -74.34660 37052 ft 523 kts 171°
2026-05-05 06:22 -24.77813 -74.32434 37049 ft 523 kts 171°
2026-05-05 06:22 -24.84826 -74.30191 37058 ft 523 kts 171°
2026-05-05 06:23 -24.91817 -74.27951 37051 ft 523 kts 171°
2026-05-05 06:23 -24.98760 -74.25724 37049 ft 522 kts 171°
2026-05-05 06:24 -25.05739 -74.23484 37051 ft 521 kts 171°
2026-05-05 06:24 -25.12680 -74.21253 37066 ft 521 kts 171°
2026-05-05 06:25 -25.19649 -74.19010 37055 ft 521 kts 171°
2026-05-05 06:25 -25.26617 -74.16764 37049 ft 520 kts 171°
2026-05-05 06:26 -25.33531 -74.14534 37053 ft 519 kts 171°
2026-05-05 06:26 -25.40490 -74.12286 37067 ft 519 kts 170°
2026-05-05 06:27 -25.50863 -74.08931 37053 ft 518 kts 170°
2026-05-05 06:28 -25.57788 -74.06687 37048 ft 518 kts 170°
2026-05-05 06:28 -25.64676 -74.04453 37049 ft 518 kts 170°
2026-05-05 06:29 -25.71607 -74.02203 37055 ft 518 kts 170°
2026-05-05 06:29 -25.78501 -73.99961 37047 ft 517 kts 170°
2026-05-05 06:30 -25.85423 -73.97708 37060 ft 517 kts 170°
2026-05-05 06:30 -25.92288 -73.95470 37055 ft 516 kts 170°
2026-05-05 06:31 -25.99186 -73.93219 37060 ft 516 kts 170°
2026-05-05 06:31 -26.06091 -73.90963 37053 ft 515 kts 170°
2026-05-05 06:32 -26.12937 -73.88724 37053 ft 515 kts 170°
2026-05-05 06:32 -26.19819 -73.86470 37050 ft 515 kts 170°
2026-05-05 06:33 -26.26698 -73.84214 37067 ft 515 kts 170°
2026-05-05 06:33 -26.33529 -73.81972 37050 ft 514 kts 170°
2026-05-05 06:34 -26.40413 -73.79708 37053 ft 514 kts 170°
2026-05-05 06:34 -26.47280 -73.77448 37051 ft 514 kts 170°
2026-05-05 06:35 -26.54114 -73.75196 37066 ft 514 kts 170°
2026-05-05 06:35 -26.61000 -73.72924 37052 ft 514 kts 170°
2026-05-05 06:36 -26.67844 -73.70663 37046 ft 514 kts 170°
2026-05-05 06:36 -26.74676 -73.68402 37049 ft 514 kts 170°
2026-05-05 06:37 -26.81556 -73.66124 37077 ft 514 kts 170°
2026-05-05 06:37 -26.87261 -73.64232 37050 ft 514 kts 170°
2026-05-05 06:38 -26.94122 -73.61954 37048 ft 514 kts 170°
2026-05-05 06:38 -27.00982 -73.59674 37048 ft 513 kts 170°
2026-05-05 06:39 -27.07804 -73.57403 37049 ft 513 kts 170°
2026-05-05 06:39 -27.14660 -73.55118 37051 ft 513 kts 170°
2026-05-05 06:40 -27.21471 -73.52845 37048 ft 513 kts 170°
2026-05-05 06:40 -27.28346 -73.50548 37047 ft 513 kts 170°
2026-05-05 06:41 -27.35151 -73.48272 37046 ft 513 kts 170°
2026-05-05 06:41 -27.42005 -73.45976 37047 ft 513 kts 170°
2026-05-05 06:42 -27.48860 -73.43676 37047 ft 513 kts 170°
2026-05-05 06:42 -27.55670 -73.41389 37046 ft 513 kts 170°
2026-05-05 06:43 -27.62539 -73.39079 37046 ft 513 kts 170°
2026-05-05 06:43 -27.69352 -73.36784 37053 ft 514 kts 170°
2026-05-05 06:44 -27.76186 -73.34312 37041 ft 519 kts 164°
2026-05-05 06:44 -27.82654 -73.30624 37043 ft 528 kts 153°
2026-05-05 06:45 -27.88824 -73.26076 37046 ft 529 kts 152°
2026-05-05 06:45 -27.94951 -73.21514 37051 ft 529 kts 152°
2026-05-05 06:46 -28.01140 -73.16967 37039 ft 529 kts 153°
2026-05-05 06:46 -28.07342 -73.12440 37041 ft 529 kts 153°
2026-05-05 06:47 -28.13495 -73.07944 37039 ft 529 kts 153°
2026-05-05 06:47 -28.19684 -73.03411 37053 ft 529 kts 153°
2026-05-05 06:48 -28.25846 -72.98889 37035 ft 529 kts 153°
2026-05-05 06:48 -28.32036 -72.94340 37038 ft 529 kts 153°
2026-05-05 06:49 -28.38183 -72.89816 37034 ft 528 kts 153°
2026-05-05 06:49 -28.44348 -72.85272 37054 ft 528 kts 153°
2026-05-05 06:50 -28.50511 -72.80726 37016 ft 527 kts 153°
2026-05-05 06:50 -28.56657 -72.76192 37035 ft 526 kts 153°
2026-05-05 06:51 -28.62816 -72.71646 37036 ft 526 kts 153°
2026-05-05 06:51 -28.68921 -72.67131 37015 ft 526 kts 153°
2026-05-05 06:52 -28.75072 -72.62573 37038 ft 526 kts 153°
2026-05-05 06:52 -28.81214 -72.58016 37030 ft 526 kts 153°
2026-05-05 06:53 -28.87334 -72.53469 37025 ft 526 kts 153°
2026-05-05 06:53 -28.93462 -72.48910 37023 ft 526 kts 153°
2026-05-05 06:54 -28.99606 -72.44331 37033 ft 527 kts 154°
2026-05-05 06:54 -29.05715 -72.39769 37024 ft 527 kts 153°
2026-05-05 06:55 -29.11863 -72.35171 37021 ft 527 kts 153°
2026-05-05 06:55 -29.18004 -72.30571 37022 ft 527 kts 153°
2026-05-05 06:56 -29.24115 -72.25989 37028 ft 527 kts 154°
2026-05-05 06:56 -29.30252 -72.21379 37022 ft 527 kts 154°
2026-05-05 06:57 -29.36387 -72.16764 37020 ft 527 kts 154°
2026-05-05 06:57 -29.42483 -72.12172 37021 ft 526 kts 154°
2026-05-05 06:58 -29.48610 -72.07550 37017 ft 527 kts 154°
2026-05-05 06:58 -29.54745 -72.02914 37016 ft 527 kts 154°
2026-05-05 06:59 -29.60862 -71.98285 37028 ft 527 kts 154°
2026-05-05 06:59 -29.66982 -71.93653 37010 ft 526 kts 154°
2026-05-05 07:00 -29.73097 -71.89021 37023 ft 527 kts 154°
2026-05-05 07:00 -29.79175 -71.84409 37016 ft 527 kts 154°
2026-05-05 07:01 -29.85290 -71.79761 37012 ft 526 kts 154°
2026-05-05 07:01 -29.91401 -71.75107 37014 ft 526 kts 154°
2026-05-05 07:02 -29.97503 -71.70455 37012 ft 526 kts 154°
2026-05-05 07:02 -30.03602 -71.65798 37013 ft 526 kts 154°
2026-05-05 07:03 -30.09692 -71.61140 37013 ft 526 kts 154°
2026-05-05 07:03 -30.15786 -71.56472 37016 ft 526 kts 154°
2026-05-05 07:04 -30.21881 -71.51796 37030 ft 526 kts 154°
2026-05-05 07:04 -30.28003 -71.47170 37028 ft 522 kts 158°
2026-05-05 07:05 -30.34398 -71.43347 37005 ft 516 kts 162°
2026-05-05 07:05 -30.40853 -71.39713 37030 ft 516 kts 162°
2026-05-05 07:06 -30.47298 -71.36042 37040 ft 517 kts 162°
2026-05-05 07:06 -30.53697 -71.32349 37025 ft 517 kts 162°
2026-05-05 07:07 -30.60120 -71.28618 37028 ft 516 kts 162°
2026-05-05 07:07 -30.66583 -71.24862 37023 ft 516 kts 162°
2026-05-05 07:08 -30.72969 -71.21151 37026 ft 516 kts 162°
2026-05-05 07:08 -30.79392 -71.17411 37023 ft 516 kts 162°
2026-05-05 07:09 -30.85806 -71.13672 37022 ft 515 kts 162°
2026-05-05 07:09 -30.88978 -71.11815 37016 ft 503 kts 162°
2026-05-05 07:09 -30.92048 -71.10008 37003 ft 487 kts 162°
2026-05-05 07:09 -30.95044 -71.08249 36692 ft 479 kts 162°
2026-05-05 07:10 -30.98004 -71.06519 36310 ft 473 kts 162°
2026-05-05 07:10 -31.00930 -71.04810 35971 ft 467 kts 162°
2026-05-05 07:10 -31.03815 -71.03123 35621 ft 462 kts 162°
2026-05-05 07:10 -31.06672 -71.01452 35237 ft 457 kts 162°
2026-05-05 07:11 -31.09499 -70.99797 34887 ft 452 kts 162°
2026-05-05 07:11 -31.12294 -70.98158 34528 ft 447 kts 162°
2026-05-05 07:11 -31.15059 -70.96535 34174 ft 442 kts 161°
2026-05-05 07:11 -31.17790 -70.94929 33825 ft 438 kts 161°
2026-05-05 07:12 -31.20494 -70.93341 33434 ft 433 kts 161°
2026-05-05 07:12 -31.23172 -70.91766 33068 ft 428 kts 161°
2026-05-05 07:12 -31.25815 -70.90211 32676 ft 423 kts 161°
2026-05-05 07:12 -31.28422 -70.88675 32371 ft 416 kts 161°
2026-05-05 07:13 -31.31010 -70.87227 32041 ft 406 kts 168°
2026-05-05 07:13 -31.33648 -70.86279 31738 ft 391 kts 177°
2026-05-05 07:13 -31.36327 -70.85760 31355 ft 391 kts 184°
2026-05-05 07:13 -31.39055 -70.85656 31036 ft 395 kts 189°
2026-05-05 07:14 -31.41807 -70.85646 30631 ft 396 kts 189°
2026-05-05 07:14 -31.44545 -70.85633 30300 ft 392 kts 188°
2026-05-05 07:14 -31.47264 -70.85613 29865 ft 389 kts 188°
2026-05-05 07:14 -31.49966 -70.85589 29460 ft 387 kts 188°
2026-05-05 07:15 -31.52644 -70.85560 29044 ft 384 kts 188°
2026-05-05 07:15 -31.55306 -70.85531 28655 ft 380 kts 188°
2026-05-05 07:15 -31.57940 -70.85501 28276 ft 377 kts 188°
2026-05-05 07:15 -31.60549 -70.85470 27911 ft 373 kts 188°
2026-05-05 07:16 -31.63141 -70.85439 27555 ft 371 kts 188°
2026-05-05 07:16 -31.65718 -70.85409 27189 ft 370 kts 188°
2026-05-05 07:16 -31.68285 -70.85380 26838 ft 368 kts 188°
2026-05-05 07:16 -31.70844 -70.85351 26476 ft 367 kts 188°
2026-05-05 07:17 -31.73363 -70.85322 26098 ft 365 kts 188°
2026-05-05 07:17 -31.75890 -70.85288 25763 ft 363 kts 187°
2026-05-05 07:17 -31.78419 -70.85213 25417 ft 363 kts 187°
2026-05-05 07:17 -31.80946 -70.85119 25048 ft 363 kts 186°
2026-05-05 07:18 -31.83473 -70.85022 24708 ft 363 kts 186°
2026-05-05 07:18 -31.85997 -70.84927 24352 ft 363 kts 186°
2026-05-05 07:18 -31.88521 -70.84833 24025 ft 362 kts 186°
2026-05-05 07:18 -31.91047 -70.84742 23648 ft 363 kts 186°
2026-05-05 07:19 -31.93575 -70.84650 23239 ft 363 kts 186°
2026-05-05 07:19 -31.96095 -70.84560 22892 ft 362 kts 186°
2026-05-05 07:19 -31.98613 -70.84469 22506 ft 361 kts 186°
2026-05-05 07:19 -32.01089 -70.84381 22163 ft 360 kts 186°
2026-05-05 07:20 -32.03627 -70.84292 21784 ft 360 kts 186°
2026-05-05 07:20 -32.06095 -70.84203 21429 ft 358 kts 185°
2026-05-05 07:20 -32.08577 -70.84114 21080 ft 356 kts 185°
2026-05-05 07:20 -32.11050 -70.84025 20723 ft 354 kts 186°
2026-05-05 07:21 -32.13509 -70.83938 20378 ft 353 kts 186°
2026-05-05 07:21 -32.15957 -70.83850 20026 ft 351 kts 186°
2026-05-05 07:21 -32.18397 -70.83763 19668 ft 350 kts 185°
2026-05-05 07:21 -32.20832 -70.83676 19332 ft 350 kts 185°
2026-05-05 07:22 -32.23266 -70.83591 18949 ft 351 kts 185°
2026-05-05 07:22 -32.25708 -70.83505 18595 ft 351 kts 185°
2026-05-05 07:22 -32.28144 -70.83415 18204 ft 351 kts 185°
2026-05-05 07:22 -32.30580 -70.83328 17812 ft 349 kts 185°
2026-05-05 07:23 -32.32999 -70.83243 17440 ft 347 kts 185°
2026-05-05 07:23 -32.35410 -70.83157 17083 ft 346 kts 184°
2026-05-05 07:23 -32.37823 -70.83070 16700 ft 347 kts 184°
2026-05-05 07:23 -32.40232 -70.82983 16333 ft 346 kts 184°
2026-05-05 07:24 -32.42641 -70.82896 15981 ft 346 kts 184°
2026-05-05 07:24 -32.45054 -70.82809 15609 ft 347 kts 183°
2026-05-05 07:24 -32.47470 -70.82722 15222 ft 348 kts 183°
2026-05-05 07:24 -32.49888 -70.82634 14878 ft 348 kts 182°
2026-05-05 07:25 -32.51499 -70.82576 14652 ft 350 kts 182°
2026-05-05 07:25 -32.53956 -70.82487 14241 ft 355 kts 182°
2026-05-05 07:25 -32.56437 -70.82400 13850 ft 358 kts 182°
2026-05-05 07:25 -32.58926 -70.82311 13445 ft 359 kts 181°
2026-05-05 07:26 -32.61421 -70.82219 13048 ft 359 kts 181°
2026-05-05 07:26 -32.63916 -70.82128 12671 ft 359 kts 181°
2026-05-05 07:26 -32.66408 -70.82037 12257 ft 357 kts 180°
2026-05-05 07:26 -32.68878 -70.81951 11951 ft 353 kts 181°
2026-05-05 07:27 -32.71304 -70.81861 11800 ft 344 kts 181°
2026-05-05 07:27 -32.73666 -70.81773 11658 ft 335 kts 181°
2026-05-05 07:27 -32.75978 -70.81689 11453 ft 331 kts 181°
2026-05-05 07:27 -32.78261 -70.81606 11265 ft 326 kts 181°
2026-05-05 07:28 -32.80493 -70.81524 11156 ft 315 kts 180°
2026-05-05 07:28 -32.82648 -70.81445 11090 ft 305 kts 180°
2026-05-05 07:28 -32.84743 -70.81369 10983 ft 296 kts 181°
2026-05-05 07:28 -32.86753 -70.81296 10482 ft 286 kts 180°
2026-05-05 07:29 -32.88719 -70.81226 9762 ft 287 kts 180°
2026-05-05 07:29 -32.90702 -70.81155 9181 ft 280 kts 180°
2026-05-05 07:29 -32.92630 -70.81132 8920 ft 275 kts 186°
2026-05-05 07:29 -32.94526 -70.81398 8605 ft 274 kts 190°
2026-05-05 07:30 -32.96414 -70.81729 8277 ft 274 kts 189°
2026-05-05 07:30 -33.00192 -70.82340 7669 ft 274 kts 188°
2026-05-05 07:30 -33.02080 -70.82432 7379 ft 271 kts 177°
2026-05-05 07:31 -33.03957 -70.82246 7111 ft 270 kts 175°
2026-05-05 07:31 -33.05821 -70.82067 6829 ft 269 kts 176°
2026-05-05 07:31 -33.07672 -70.81942 6620 ft 263 kts 177°
2026-05-05 07:31 -33.09483 -70.81841 6423 ft 257 kts 178°
2026-05-05 07:32 -33.11245 -70.81749 6260 ft 250 kts 178°
2026-05-05 07:32 -33.12958 -70.81659 6076 ft 243 kts 178°
2026-05-05 07:32 -33.14623 -70.81572 5886 ft 237 kts 178°
2026-05-05 07:32 -33.16265 -70.81485 5598 ft 233 kts 178°
2026-05-05 07:33 -33.17835 -70.81401 5336 ft 220 kts 178°
2026-05-05 07:33 -33.19311 -70.81322 5049 ft 205 kts 178°
2026-05-05 07:33 -33.20673 -70.81251 4798 ft 187 kts 178°
2026-05-05 07:33 -33.21896 -70.81187 4566 ft 165 kts 177°
2026-05-05 07:34 -33.23015 -70.81127 4334 ft 160 kts 177°
2026-05-05 07:34 -33.24129 -70.81068 4130 ft 160 kts 177°
2026-05-05 07:34 -33.25235 -70.81009 3922 ft 159 kts 177°
2026-05-05 07:34 -33.26331 -70.80951 3721 ft 157 kts 177°
2026-05-05 07:35 -33.27420 -70.80893 3517 ft 156 kts 177°
2026-05-05 07:35 -33.28506 -70.80835 3314 ft 156 kts 177°
2026-05-05 07:35 -33.29591 -70.80778 3118 ft 156 kts 177°
2026-05-05 07:35 -33.30674 -70.80720 2885 ft 157 kts 178°
2026-05-05 07:36 -33.31758 -70.80662 2686 ft 155 kts 178°
2026-05-05 07:36 -33.32836 -70.80606 2477 ft 154 kts 178°
2026-05-05 07:36 -33.33902 -70.80550 2255 ft 152 kts 178°
2026-05-05 07:36 -33.34952 -70.80494 2054 ft 151 kts 177°
2026-05-05 07:37 -33.36005 -70.80444 1844 ft 152 kts 176°
2026-05-05 07:37 -33.37056 -70.80384 1670 ft 151 kts 175°
2026-05-05 07:37 -33.38086 -70.80324 1576 ft 139 kts 176°
2026-05-05 07:37 -33.38917 -70.80279 1578 ft 97 kts 177°
2026-05-05 07:38 -33.39440 -70.80250 1576 ft 53 kts 178°
2026-05-05 07:38 -33.39691 -70.80238 1576 ft 31 kts 177°
2026-05-05 07:38 -33.39876 -70.80222 1577 ft 14 kts 161°
2026-05-05 07:38 -33.39961 -70.80166 1576 ft 14 kts 147°
2026-05-05 07:39 -33.40042 -70.80100 1574 ft 14 kts 142°
2026-05-05 07:39 -33.40122 -70.80029 1572 ft 14 kts 144°
2026-05-05 07:39 -33.40215 -70.79997 1571 ft 14 kts 175°
2026-05-05 07:39 -33.40315 -70.79988 1571 ft 14 kts 176°
2026-05-05 07:40 -33.40407 -70.79981 1571 ft 11 kts 176°
2026-05-05 07:40 -33.40454 -70.79977 1571 ft 5 kts 176°
2026-05-05 07:40 -33.40482 -70.79953 1570 ft 5 kts 118°
2026-05-05 07:40 -33.40488 -70.79907 1570 ft 6 kts 89°
2026-05-05 07:41 -33.40487 -70.79860 1569 ft 6 kts 86°
2026-05-05 07:41 -33.40485 -70.79813 1569 ft 6 kts 87°
2026-05-05 07:41 -33.40472 -70.79771 1569 ft 6 kts 42°
2026-05-05 07:41 -33.40432 -70.79768 1569 ft 6 kts 357°
2026-05-05 07:42 -33.40400 -70.79770 1569 ft 1 kts 358°